[[{"header":{"parameterUnit":"m.s-1","parameterCategory":1,"la1":30.2991,"la2":30.254,"lo1":-89.0895,"lo2":-89.0444,"dy":0.0017,"dx":0.0017,"nx":28,"ny":28,"refTime":"2025-06-19T09:00:00:Z","depth":0,"parameterNumber":2,"parameterNumberName":"U-component_of_WINDS"},"data":[0,0,0,0,0,0,0,0,0,0,0,0,0,0,0,0,0,0,0,0,0,0,0,0,0,0,0,0,0,0,0,0,0,0,0,0,0,0,0,0,0,0,0,0,0,0,0,0,0,0,0,0,0,0,0,0,0,0,2.8537,2.8538,0,2.8594,2.8594,2.8595,2.8539,2.8537,2.8535,2.8533,2.8588,2.8591,2.8595,0,0,0,0,0,0,0,0,0,0,0,0,0,2.8376,2.8379,2.8537,2.8538,2.8538,2.8594,2.8594,2.8595,2.8539,2.8537,2.8534,2.8532,2.8587,2.8591,2.8595,0,0,0,0,0,0,0,0,0,0,0,0,0,2.844,2.838,2.8537,2.8517,2.8516,2.8594,2.8595,2.8595,2.854,2.8537,2.8533,2.853,2.8585,2.859,2.8596,2.8694,0,0,2.8612,2.8614,0,0,0,0,0,0,0,0,2.8437,2.8446,2.8519,2.8519,2.8518,2.8556,2.8558,2.8628,2.8541,2.8531,2.8533,2.8529,2.858,2.8585,2.8603,2.8697,2.8699,2.8612,2.8615,2.8618,2.8619,0,0,0,0,0,0,0,2.8432,2.8443,2.8559,2.8521,2.8519,2.8504,2.851,2.8571,2.8573,2.8531,2.8528,2.8535,2.8578,2.8598,2.8604,2.87,2.8612,2.8617,2.862,2.8622,2.8873,2.8877,0,0,0,0,0,0,2.843,2.844,2.8557,2.8561,2.8468,2.851,2.8516,2.8547,2.8572,2.8573,2.8538,2.8532,2.8591,2.8598,2.8606,2.8719,2.8618,2.8623,2.8626,2.887,2.8874,2.8878,0,0,0,0,0,0,2.8427,2.8442,2.8555,2.85,2.8513,2.8516,2.8551,2.855,2.8569,2.8577,2.8577,2.8558,2.8588,2.8598,2.8672,2.872,2.8625,2.863,2.8866,2.8871,2.8876,2.8949,0,0,0,0,0,0,2.8423,2.8441,2.8479,2.8501,2.8516,2.8622,2.8554,2.8553,2.8579,2.8572,2.8596,2.8596,2.8587,2.8664,2.8677,2.8726,2.8634,2.8861,2.8868,2.8874,2.8942,2.8956,2.8968,0,0,0,0,0,2.8417,2.8498,2.8482,2.8496,2.8565,2.8625,2.8633,2.8621,2.8583,2.8621,2.8625,2.8596,2.8714,2.8672,2.8686,2.8737,2.8858,2.8866,2.8874,2.8937,2.8954,2.8968,0,0,0,0,0,0,2.8481,2.85,2.8482,2.8573,2.8598,2.8615,2.8663,2.864,2.8676,2.8668,2.8651,2.8656,2.8734,2.8744,2.8697,2.8832,2.8779,2.879,2.8822,2.8839,2.8851,2.8845,2.8638,0,0,0,0,0,2.8506,2.8555,2.8569,2.8647,2.866,2.866,2.8686,2.8674,2.8699,2.8709,2.8719,2.8743,2.8785,2.8813,2.8853,2.8945,2.8947,2.8987,2.9,2.901,2.9019,2.9064,2.9081,2.8904,2.8904,2.8903,0,0,2.8558,2.8574,2.8606,2.866,2.8678,2.8726,2.8669,2.8724,2.8758,2.8717,2.8785,2.8794,2.882,2.8902,2.8939,2.8913,2.9068,2.902,2.9029,2.9031,2.9074,2.909,2.9105,2.8909,2.8908,2.8907,0,0,2.8675,2.8694,2.8759,2.8779,2.8806,2.8805,2.8821,2.8842,2.8846,2.8916,2.8884,2.8925,2.9,2.9018,2.9037,2.916,2.9132,2.9173,2.9239,2.9284,2.9298,2.931,2.935,2.9365,2.9183,2.9183,2.9183,0,2.8734,2.8808,2.8796,2.8852,2.8875,2.884,2.8905,2.8924,2.8963,2.8979,2.895,2.904,2.9055,2.9139,2.9169,2.9187,2.9202,2.9169,2.9297,2.9309,2.932,2.9358,2.9373,2.9187,2.9187,2.9186,2.9186,0,2.8877,2.8929,2.8978,2.9016,2.9046,2.9106,2.9101,2.9132,2.9118,2.9119,2.9189,2.9206,2.9246,2.9267,2.9254,2.9348,2.933,2.93,2.9245,2.9342,2.9376,2.9391,2.9194,2.9192,2.9191,2.919,0,0,2.9035,2.9066,2.9083,2.9099,2.9127,2.9165,2.9223,2.9263,2.9288,2.9317,2.9362,2.9425,2.9396,2.9418,2.9407,2.9447,2.9538,2.941,2.941,2.943,2.9638,2.9658,2.9675,2.9521,2.9524,2.9526,2.9634,0,2.9149,2.925,2.924,2.9334,2.9379,2.9347,2.9396,2.9418,2.9421,2.9458,2.9461,2.9504,2.9465,2.9477,2.9515,2.9519,2.9578,2.9511,2.956,2.9562,2.955,2.9694,2.9715,2.9816,2.9648,2.9651,2.9652,0,2.9296,2.9329,2.9428,2.9446,2.9465,2.951,2.9544,2.9582,2.9604,2.9603,2.9627,2.9609,2.9664,2.9612,2.9686,2.964,2.966,2.9665,2.9668,2.9669,2.961,2.9694,2.9849,2.9862,2.9674,2.9673,2.9671,0,2.9395,2.9465,2.9532,2.9547,2.9571,2.9603,2.9614,2.9634,2.9658,2.9688,2.9703,2.974,2.9759,2.9787,2.9778,2.9741,2.9852,2.98,2.985,2.985,2.9872,2.987,3.0027,2.9892,2.9892,2.9891,2.9891,0,2.9522,2.9582,2.9576,2.9617,2.9683,2.9671,2.9736,2.9744,2.9761,2.9801,2.9777,2.9815,2.9803,2.984,2.9833,2.9893,2.9903,2.9902,2.9898,2.9902,2.9901,2.9911,2.9902,2.9895,2.9895,2.9894,2.9893,0,2.9642,2.9641,2.9711,2.9729,2.9734,2.9782,2.9795,2.9833,2.9834,2.9885,2.9896,2.9897,2.9939,2.9934,2.9981,2.9976,3.005,3.004,3.0042,3.0038,3.0086,3.008,3.0252,3.0273,3.0128,3.013,3.0131,0,2.9721,2.9766,2.9788,2.9814,2.9827,2.9869,2.9892,2.9883,2.9908,2.9937,2.997,3.001,3.004,3.0108,3.0112,3.0147,3.0136,3.0194,3.014,3.0141,3.0131,3.0127,3.0129,3.0203,3.0204,3.0206,3.0207,0,2.9859,2.9856,2.9892,2.9927,2.9957,2.9984,3.0009,3.0031,3.0023,3.0053,3.0095,3.0119,3.0166,3.0205,3.0238,3.0247,3.0225,3.0224,3.0236,3.0238,3.0235,3.0233,3.0065,3.0219,3.0218,3.0217,3.0216,3.0216,2.9957,2.9995,3.0016,3.0056,3.0074,3.0097,3.0132,3.0137,3.0173,3.021,3.0203,3.0249,3.0269,3.031,3.0324,3.0359,3.0337,3.0357,3.0361,3.0365,3.0368,3.0233,3.0366,3.0365,3.0365,3.0365,3.0364,0,3.009,3.0102,3.0139,3.0174,3.0205,3.0183,3.0209,3.0236,3.0277,3.0298,3.0329,3.0376,3.0413,3.042,3.0455,3.0481,3.0471,3.049,3.0486,3.0488,3.0388,3.0371,3.0497,3.0497,3.0497,3.0497,3.0497,3.0497,3.0162,3.0224,3.0223,3.0292,3.0303,3.0348,3.0365,3.0385,3.0401,3.0455,3.0485,3.049,3.0505,3.054,3.0572,3.0573,3.0585,3.0607,3.0603,3.0509,3.0495,3.0482,3.0467,3.0611,3.0611,3.07,3.07,3.0701]},{"header":{"parameterUnit":"m.s-1","parameterCategory":1,"la1":30.2991,"la2":30.254,"lo1":-89.0895,"lo2":-89.0444,"dy":0.0017,"dx":0.0017,"nx":28,"ny":28,"refTime":"2025-06-19T09:00:00:Z","depth":0,"parameterNumber":3,"parameterNumberName":"V-component_of_WINDS"},"data":[0,0,0,0,0,0,0,0,0,0,0,0,0,0,0,0,0,0,0,0,0,0,0,0,0,0,0,0,0,0,0,0,0,0,0,0,0,0,0,0,0,0,0,0,0,0,0,0,0,0,0,0,0,0,0,0,0,0,1.8105,1.8106,0,1.8226,1.8227,1.8229,1.824,1.8239,1.8237,1.8236,1.8359,1.8363,1.8368,0,0,0,0,0,0,0,0,0,0,0,0,0,1.788,1.7884,1.8105,1.8106,1.8108,1.8226,1.8227,1.8229,1.824,1.8238,1.8237,1.8235,1.8357,1.8363,1.8368,0,0,0,0,0,0,0,0,0,0,0,0,0,1.7987,1.7886,1.8104,1.8127,1.8131,1.8225,1.8227,1.8229,1.824,1.8238,1.8236,1.8235,1.8356,1.8362,1.8369,1.8448,0,0,1.8389,1.8392,0,0,0,0,0,0,0,0,1.7981,1.7995,1.8122,1.8126,1.813,1.8216,1.8193,1.8303,1.8241,1.8199,1.8236,1.8234,1.8313,1.8323,1.835,1.8454,1.846,1.839,1.8394,1.8397,1.8399,0,0,0,0,0,0,0,1.7974,1.799,1.8153,1.8124,1.8129,1.8131,1.8144,1.8214,1.8265,1.8202,1.8203,1.8218,1.8314,1.8343,1.8353,1.8461,1.839,1.8396,1.84,1.8402,1.8635,1.8637,0,0,0,0,0,0,1.7962,1.7984,1.8149,1.8156,1.8049,1.8136,1.8151,1.819,1.8264,1.8274,1.8219,1.8218,1.8333,1.8345,1.8357,1.8454,1.8397,1.8403,1.8407,1.8633,1.8635,1.8638,0,0,0,0,0,0,1.7957,1.7977,1.8144,1.807,1.8092,1.8142,1.8186,1.8193,1.8222,1.8277,1.8286,1.8239,1.8332,1.8348,1.8425,1.8458,1.8406,1.8412,1.863,1.8633,1.8636,1.8649,0,0,0,0,0,0,1.7951,1.7975,1.8006,1.8071,1.8096,1.8211,1.8188,1.8197,1.8234,1.8233,1.8298,1.8307,1.8331,1.8415,1.8432,1.8467,1.8417,1.8627,1.8632,1.8635,1.8645,1.8652,1.8657,0,0,0,0,0,1.7943,1.8005,1.8008,1.8028,1.8136,1.8213,1.8227,1.8254,1.8237,1.8268,1.8303,1.8305,1.8452,1.8423,1.8442,1.8479,1.8625,1.863,1.8635,1.8643,1.8651,1.8657,0,0,0,0,0,0,1.7943,1.8014,1.8018,1.8104,1.8152,1.8214,1.8255,1.8261,1.8315,1.8312,1.8343,1.8357,1.8433,1.8464,1.8431,1.8559,1.8537,1.8546,1.8536,1.8544,1.855,1.8541,1.8423,0,0,0,0,0,1.7953,1.801,1.8069,1.8138,1.8163,1.8205,1.8239,1.8255,1.8307,1.8327,1.8368,1.8417,1.8474,1.8511,1.8566,1.865,1.8663,1.8685,1.869,1.8695,1.8702,1.8747,1.8756,1.8654,1.8653,1.8653,0,0,1.7975,1.8021,1.8055,1.814,1.8179,1.8236,1.8222,1.8283,1.8326,1.8336,1.8412,1.8443,1.85,1.858,1.8618,1.8608,1.8733,1.8701,1.8704,1.8709,1.8753,1.8762,1.8771,1.8657,1.8656,1.8656,0,0,1.8043,1.8084,1.8145,1.8185,1.8245,1.8272,1.8287,1.8348,1.8369,1.8445,1.8454,1.8504,1.8602,1.8642,1.8675,1.8755,1.8759,1.8773,1.8803,1.8847,1.8855,1.8862,1.8889,1.8899,1.878,1.878,1.878,0,1.8062,1.8149,1.8176,1.8237,1.8273,1.8286,1.8347,1.8384,1.8459,1.8483,1.8472,1.8594,1.8633,1.8722,1.8741,1.8768,1.8785,1.8765,1.8851,1.8859,1.8866,1.8893,1.8903,1.8781,1.8781,1.8781,1.8781,0,1.8168,1.8228,1.8271,1.8342,1.8383,1.8445,1.848,1.8518,1.8531,1.8559,1.8635,1.8682,1.8747,1.8769,1.8782,1.8859,1.8851,1.8845,1.8823,1.8877,1.8902,1.8912,1.8783,1.8782,1.8782,1.8782,0,0,1.8241,1.8326,1.8341,1.8372,1.8438,1.8485,1.8546,1.8609,1.864,1.8691,1.8742,1.8823,1.8818,1.8855,1.8872,1.891,1.8969,1.8899,1.8901,1.8909,1.9055,1.9058,1.907,1.8972,1.8974,1.8975,1.905,0,1.8316,1.8424,1.845,1.8543,1.8598,1.8609,1.8662,1.8707,1.8735,1.8784,1.8814,1.8871,1.886,1.8882,1.892,1.8954,1.8998,1.8949,1.9018,1.902,1.9003,1.9083,1.9088,1.9156,1.906,1.9062,1.9063,0,1.8417,1.847,1.8568,1.8625,1.8649,1.8696,1.8755,1.8802,1.8853,1.8871,1.8911,1.8924,1.8986,1.8962,1.9047,1.9013,1.9042,1.9063,1.9066,1.9073,1.9044,1.9091,1.9179,1.9188,1.9079,1.9078,1.9077,0,1.8459,1.8554,1.8624,1.8651,1.872,1.8752,1.8782,1.8832,1.8867,1.8919,1.8942,1.8999,1.9031,1.9075,1.9102,1.9082,1.9185,1.9163,1.9199,1.9199,1.922,1.9218,1.9312,1.9241,1.9241,1.924,1.924,0,1.8539,1.8598,1.8643,1.8687,1.8753,1.8781,1.8846,1.8876,1.8919,1.8968,1.8981,1.9026,1.906,1.911,1.9132,1.9198,1.9212,1.9227,1.9232,1.9225,1.9223,1.9245,1.924,1.9243,1.9243,1.9242,1.9242,0,1.8596,1.8629,1.8706,1.8765,1.8781,1.8827,1.8876,1.8918,1.8945,1.9006,1.9022,1.9065,1.9123,1.9155,1.9229,1.9243,1.9317,1.932,1.93,1.9302,1.9336,1.9332,1.9447,1.9462,1.9381,1.9382,1.9383,0,1.8644,1.869,1.8753,1.8786,1.8817,1.8871,1.8907,1.8936,1.8973,1.9033,1.9067,1.9127,1.9176,1.9269,1.9306,1.9362,1.9365,1.9401,1.9374,1.9365,1.9364,1.9361,1.9365,1.9406,1.9407,1.9407,1.9408,0,1.8726,1.874,1.8792,1.8849,1.8891,1.8938,1.8984,1.901,1.9046,1.9087,1.9147,1.9185,1.926,1.9318,1.9376,1.9406,1.9413,1.9416,1.9428,1.9421,1.9407,1.9414,1.9312,1.9413,1.9413,1.9412,1.9412,1.9412,1.878,1.882,1.887,1.8927,1.8964,1.9006,1.9048,1.908,1.9131,1.9194,1.9208,1.927,1.9319,1.9398,1.9429,1.9478,1.9471,1.9488,1.9492,1.9495,1.9496,1.9399,1.9489,1.9489,1.9489,1.9489,1.9489,0,1.8862,1.8894,1.8946,1.9009,1.9053,1.9055,1.9106,1.9142,1.9197,1.9242,1.929,1.9358,1.9414,1.9455,1.9512,1.9543,1.9547,1.9557,1.9554,1.9561,1.95,1.9484,1.9552,1.9552,1.9552,1.9552,1.9552,1.9552,1.8909,1.8977,1.8996,1.9082,1.9114,1.9176,1.9204,1.9242,1.9278,1.9353,1.94,1.9426,1.9469,1.9529,1.958,1.959,1.961,1.9619,1.963,1.9572,1.9565,1.9559,1.9544,1.9623,1.9624,1.9686,1.9687,1.9687]}]]